Flag for Algeria Weather past 2 weeks in Constantine, Algeria

Now
88 °F

Passing clouds.


Feels Like: 87 °F
Forecast: 61 / 86 °F
Wind: 5 mph from Northwest

Location: Constantine Airport

Current Time: Oct 1, 2014 at 1:48:00 PM

Latest Report: Oct 1, 2014 at 1:00 PM


Visibility: N/A

Pressure: 30.27 "Hg

Humidity: 35%

Dew point: 57 °F

Location of ConstantineLocation

Historic Weather in Constantine — Graph

°F

Constantine temperature yesterday

Maximum temperature yesterday: 90 °F (at 3:00 PM)
Minimum temperature yesterday: 61 °F (at 3:00 AM)
Average temperature yesterday: 73 °F

Past Weeks' High & Low Weather Summary

 TemperatureHumidityPressure
High106 °F (Sep 19, 3:00 PM)94% (Sep 27, 7:30 AM)30.36 "Hg (Sep 27, 7:30 AM)
Low55 °F (Sep 27, 5:00 AM)9% (Sep 19, 3:00 PM)29.89 "Hg (Sep 17, 2:30 PM)
Average76 °F50%30.13 "Hg
* Reported Sep 16 12:00 Noon — Oct 1 12:30 PM, Constantine, Weather by CustomWeather, © 2014

Note: Actual official high and low records may vary slightly from our data, if they occured in-between our weather recording intervals... More about our weather records

Advertising

Constantine weather history for previous 24 hours

 ConditionsComfort  
Time TempWeatherWind HumidityBarometerVisibility
12:30 PM
Oct 1
86 °FSunny.2 mph38%30.33 "Hg10 mi
12:00 PM84 °FSunny.6 mph40%30.33 "Hg10 mi
11:30 AM84 °FSunny.3 mph43%30.33 "Hg10 mi
11:00 AM81 °FSunny.6 mph45%30.33 "Hg10 mi
10:30 AM79 °FSunny.6 mph51%30.36 "Hg10 mi
10:00 AM77 °FSunny.2 mph51%30.36 "Hg10 mi
9:30 AM73 °FPassing clouds.No wind61%30.36 "HgN/A
9:00 AM68 °FPassing clouds.No wind69%30.36 "HgN/A
8:30 AM68 °FPassing clouds.No wind64%30.33 "HgN/A
8:00 AM66 °FPassing clouds.No wind73%30.33 "HgN/A
7:30 AM64 °FPassing clouds.No wind78%30.33 "HgN/A
7:00 AM61 °FSunny.6 mph83%30.30 "Hg10 mi
6:30 AM61 °FSunny.No wind83%30.30 "Hg10 mi
6:00 AM59 °FClear.No wind88%30.30 "Hg10 mi
5:30 AM61 °FClear.No wind83%30.30 "Hg10 mi
5:00 AM61 °FClear.No wind83%30.30 "Hg10 mi
4:00 AM61 °FClear.No wind83%30.30 "Hg10 mi
3:00 AM63 °FClear.No wind73%30.30 "Hg10 mi
2:00 AM63 °FClear.No wind73%30.30 "Hg10 mi
1:30 AM63 °FClear.No wind73%30.30 "Hg10 mi
1:00 AM63 °FClear.No wind73%30.30 "Hg10 mi
12:00 AM63 °FClear.No wind73%30.33 "Hg10 mi
11:30 PM
Sep 30
66 °FClear.No wind64%30.33 "Hg10 mi
11:00 PM68 °FClear.No wind60%30.33 "Hg10 mi
10:30 PM68 °FClear.No wind60%30.33 "Hg10 mi
10:00 PM68 °FClear.No wind60%30.33 "Hg10 mi
9:30 PM70 °FPassing clouds.No wind64%30.33 "HgN/A
9:00 PM70 °FPassing clouds.5 mph64%30.33 "HgN/A
8:30 PM72 °FPassing clouds.7 mph69%30.33 "HgN/A
8:00 PM72 °FPassing clouds.7 mph69%30.33 "HgN/A
7:30 PM73 °FPassing clouds.10 mph61%30.30 "HgN/A
7:00 PM75 °FPassing clouds.5 mph57%30.30 "HgN/A
6:30 PM75 °FPassing clouds.9 mph57%30.30 "HgN/A
6:00 PM77 °FScattered clouds.9 mph54%30.27 "HgN/A
5:30 PM79 °FScattered clouds.13 mph54%30.27 "HgN/A
5:00 PM81 °FScattered clouds.9 mph54%30.27 "HgN/A
4:30 PM81 °FThunderstorms. Scattered clouds.10 mph48%30.27 "HgN/A
4:00 PM79 °FThunderstorms. Scattered clouds.15 mph54%30.27 "HgN/A
3:30 PM84 °FThunderstorms. Scattered clouds.9 mph37%30.24 "HgN/A
3:00 PM90 °FScattered clouds.6 mph31%30.27 "HgN/A
2:30 PM88 °FScattered clouds.3 mph33%30.27 "HgN/A
2:00 PM88 °FScattered clouds.6 mph33%30.27 "HgN/A
1:30 PM88 °FScattered clouds.6 mph33%30.30 "HgN/A
1:00 PM84 °FScattered clouds.7 mph37%30.30 "HgN/A
Weather by CustomWeather, © 2014

See weather overviewHow to use our weather pages